Weather History for Fort Benning, GA

Change the Weather History Date:

Friday, October 26, 2012

  Actual Average Record
Temperature  
Mean Temperature 69 °F -  
Max Temperature 84 °F 74 °F 88 °F (2010)
Min Temperature 55 °F 48 °F 31 °F (2013)
Cooling Degree Days 4    
Growing Degree Days 19 (Base 50)    
Moisture  
Dew Point 58 °F    
Average Humidity 90    
Maximum Humidity 100    
Minimum Humidity 40    
Precipitation  
Precipitation 0.00 in - - ()
Sea Level Pressure  
Sea Level Pressure 29.97 in    
Wind  
Wind Speed 3 mph (NW)    
Max Wind Speed 8 mph    
Max Gust Speed -    
Visibility 5 miles    
Events Fog    
Averages and records for this station are not official NWS values.
T = Trace of Precipitation, MM = Missing Value Source: NWS Daily Summary

Daily Weather History Graph

Daily Weather History Graph

Search for Another Location

Airport:

Trip Planner

Search our weather history database for the weather conditions in past years. The results will help you decide how hot, cold, wet, or windy it might be!

Date:

Astronomy

Oct. 26, 2012 Rise Set
Actual Time 7:52 AM EDT 6:54 PM EDT
Civil Twilight 7:27 AM EDT 7:19 PM EDT
Nautical Twilight 6:58 AM EDT 7:48 PM EDT
Astronomical Twilight 6:29 AM EDT 8:17 PM EDT
Moon 5:03 PM EDT (10/26) 4:56 AM EDT (10/26)
Length of Visible Light 11h 52m
Length of Day
11h 02m
Waxing Gibbous, 91% of the Moon is Illuminated
Oct 26
Waxing Gibbous
Oct 29
Full
Nov 6
Last Quarter
Nov 13
New
Nov 20
First Quarter

Hourly Weather History & Observations

Time (EDT) Temp. Heat Index Dew Point Humidity Pressure Visibility Wind Dir Wind Speed Gust Speed Precip Events Conditions
12:55 AM 60.1 °F - 59.7 °F 99% 29.99 in 10.0 mi North 3.5 mph - N/A   Partly Cloudy
1:55 AM 59.0 °F - 58.8 °F 99% 29.99 in 10.0 mi Calm Calm - N/A   Clear
2:55 AM 57.6 °F - 57.4 °F 99% 29.99 in 10.0 mi North 3.5 mph - N/A   Clear
3:55 AM 56.8 °F - 56.5 °F 99% 29.99 in 10.0 mi North 3.5 mph - N/A   Clear
4:55 AM 56.7 °F - 56.3 °F 99% 29.98 in 10.0 mi North 3.5 mph - N/A   Clear
5:55 AM 56.7 °F - 56.5 °F 99% 29.98 in 10.0 mi NW 3.5 mph - N/A   Clear
6:55 AM 57.2 °F - 57.0 °F 99% 29.98 in 10.0 mi NNW 3.5 mph - N/A   Clear
7:30 AM 57.2 °F - 57.2 °F 100% 29.99 in 1.0 mi WNW 3.5 mph - N/A   Clear
7:32 AM 57.2 °F - 57.2 °F 100% 29.98 in 1.0 mi WNW 3.5 mph - N/A   Mist
7:33 AM 57.2 °F - 57.2 °F 100% 29.99 in 0.8 mi WNW 3.5 mph - N/A   Clear
7:37 AM 57.2 °F - 55.4 °F 94% 29.99 in 0.8 mi WNW 3.5 mph - N/A   Clear
7:39 AM 57.2 °F - 57.2 °F 100% 29.99 in 0.8 mi WNW 3.5 mph - N/A   Clear
7:42 AM 57.2 °F - 57.2 °F 100% 29.99 in 0.5 mi WNW 4.6 mph - N/A Fog Fog
7:48 AM 57.2 °F - 55.4 °F 94% 29.99 in 0.5 mi WNW 3.5 mph - N/A Fog Fog
7:51 AM 57.2 °F - 55.4 °F 94% 29.98 in 0.5 mi WNW 3.5 mph - N/A Fog Fog
7:52 AM 57.2 °F - 57.2 °F 100% 29.99 in 0.8 mi WNW 3.5 mph - N/A   Clear
7:53 AM 57.2 °F - 57.2 °F 100% 29.98 in 0.8 mi WNW 3.5 mph - N/A   Mist
7:55 AM 56.7 °F - 56.5 °F 99% 29.99 in 0.8 mi WNW 3.5 mph - N/A   Clear
7:56 AM 57.2 °F - 57.2 °F 100% 29.99 in 1.0 mi WNW 3.5 mph - N/A   Clear
8:03 AM 57.2 °F - 57.2 °F 100% 29.99 in 0.8 mi Calm Calm - N/A   Clear
8:07 AM 57.2 °F - 57.2 °F 100% 29.99 in 0.5 mi Calm Calm - N/A Fog Fog
8:09 AM 57.2 °F - 57.2 °F 100% 29.99 in 0.5 mi WNW 3.5 mph - N/A Fog Fog
8:10 AM 57.2 °F - 57.2 °F 100% 29.99 in 0.5 mi WNW 3.5 mph - N/A Fog Fog
8:13 AM 57.2 °F - 57.2 °F 100% 30.00 in 0.5 mi WNW 3.5 mph - N/A Fog Fog
8:15 AM 57.2 °F - 57.2 °F 100% 30.00 in 0.5 mi WNW 3.5 mph - N/A Fog Fog
8:18 AM 57.2 °F - 57.2 °F 100% 30.00 in 0.8 mi WNW 4.6 mph - N/A   Clear
8:20 AM 57.2 °F - 57.2 °F 100% 30.00 in 1.0 mi WNW 4.6 mph - N/A   Clear
8:21 AM 57.2 °F - 57.2 °F 100% 30.00 in 1.5 mi WNW 4.6 mph - N/A   Clear
8:22 AM 57.2 °F - 57.2 °F 100% 30.00 in 2.0 mi WNW 4.6 mph - N/A   Clear
8:24 AM 59.0 °F - 57.2 °F 94% 30.00 in 3.0 mi WNW 4.6 mph - N/A   Clear
8:55 AM 61.2 °F - 60.8 °F 99% 30.02 in 10.0 mi NW 4.6 mph - N/A   Clear
9:55 AM 66.4 °F - 66.4 °F 100% 30.03 in 10.0 mi NE 3.5 mph - N/A   Clear
10:55 AM 72.7 °F - 63.5 °F 73% 30.03 in 10.0 mi ENE 5.8 mph - N/A   Scattered Clouds
11:55 AM 75.6 °F - 62.6 °F 64% 30.02 in 10.0 mi NNE 5.8 mph - N/A   Scattered Clouds
12:55 PM 79.2 °F - 61.2 °F 54% 29.99 in 10.0 mi NNE 8.1 mph - N/A   Clear
1:55 PM 81.7 °F 82.3 °F 61.0 °F 49% 29.95 in 10.0 mi Variable 6.9 mph - N/A   Scattered Clouds
3:55 PM 80.2 °F 80.7 °F 58.1 °F 47% 29.90 in 10.0 mi NNE 8.1 mph - N/A   Partly Cloudy
4:55 PM 83.1 °F 82.4 °F 56.5 °F 40% 29.89 in 10.0 mi NNE 8.1 mph - N/A   Partly Cloudy
5:55 PM 82.0 °F 81.6 °F 56.3 °F 41% 29.88 in 10.0 mi NE 6.9 mph - N/A   Clear
6:55 PM 76.6 °F - 57.2 °F 51% 29.89 in 10.0 mi NNE 4.6 mph - N/A   Clear
7:55 PM 65.8 °F - 57.6 °F 75% 29.90 in 10.0 mi WNW 3.5 mph - N/A   Clear
8:55 PM 61.5 °F - 56.1 °F 82% 29.89 in 10.0 mi Calm Calm - N/A   Clear
9:55 PM 58.1 °F - 56.7 °F 95% 29.90 in 10.0 mi Calm Calm - N/A   Clear
10:55 PM 55.8 °F - 55.6 °F 99% 29.89 in 10.0 mi West 3.5 mph - N/A   Clear
11:55 PM 56.5 °F - 55.9 °F 98% 29.89 in 4.0 mi Calm Calm - N/A   Clear
11:57 PM 55.4 °F - 55.4 °F 100% 29.89 in 3.0 mi Calm Calm - N/A   Clear
11:58 PM 55.4 °F - 55.4 °F 100% 29.89 in 2.0 mi Calm Calm - N/A   Clear